This is the latest recevied weather packets stored in our database for station/object WX4HP-13. If no packets are shown the sender has not sent any weather packets the latest 10 day(s).
| Time | Temp. | Humidity | Pressure | Rain* | Wind** | Luminosity | Snow |
|---|---|---|---|---|---|---|---|
| 1777535995 | 13.33° C | 96% | 1012.6 hPa | 6.6 mm | - | - | - |
| 1777535695 | 13.33° C | 96% | 1012.4 hPa | 6.6 mm | - | - | - |
| 1777535396 | 13.33° C | 96% | 1012.3 hPa | 6.6 mm | - | - | - |
| 1777534795 | 13.33° C | 96% | 1012 hPa | 7.11 mm | - | - | - |
| 1777534495 | 13.33° C | 96% | 1012.1 hPa | 8.13 mm | - | - | - |
| 1777534195 | 13.33° C | 96% | 1012.1 hPa | 7.87 mm | - | - | - |
| 1777533896 | 13.33° C | 96% | 1012.3 hPa | 8.64 mm | - | - | - |
| 1777533596 | 13.33° C | 96% | 1012.5 hPa | 10.67 mm | - | - | - |
| 1777533296 | 13.33° C | 96% | 1012.5 hPa | 12.95 mm | - | - | - |
| 1777532995 | 13.33° C | 96% | 1012.4 hPa | 14.22 mm | - | - | - |
| 1777532747 | 13.33° C | 96% | 1012.2 hPa | 15.24 mm | - | - | - |
| 1777532695 | 13.33° C | 96% | 1012.2 hPa | 15.24 mm | - | - | - |
| 1777532395 | 13.33° C | 95% | 1012.2 hPa | 15.49 mm | - | - | - |
| 1777532096 | 13.33° C | 95% | 1012.6 hPa | 14.99 mm | - | - | - |
| 1777531796 | 13.33° C | 95% | 1012.8 hPa | 14.73 mm | - | - | - |
| 1777531496 | 13.89° C | 95% | 1013.2 hPa | 15.24 mm | - | - | - |
| 1777531196 | 13.89° C | 95% | 1013.3 hPa | 14.73 mm | - | - | - |
| 1777530895 | 13.89° C | 95% | 1013.3 hPa | 15.49 mm | - | - | - |
| 1777530595 | 13.89° C | 94% | 1012.8 hPa | 13.97 mm | - | - | - |
| 1777530296 | 14.44° C | 94% | 1013.3 hPa | 11.18 mm | - | - | - |
| 1777529995 | 14.44° C | 95% | 1013.6 hPa | 9.65 mm | - | - | - |
| 1777529696 | 14.44° C | 94% | 1013.5 hPa | 9.14 mm | - | - | - |
| 1777529395 | 14.44° C | 94% | 1013.3 hPa | 8.38 mm | - | - | - |
| 1777529095 | 15° C | 94% | 1013 hPa | 8.13 mm | - | - | - |
| 1777528495 | 15° C | 94% | 1012.8 hPa | 7.87 mm | - | - | - |
* Rain latest hour (hover to see other rain measurements)
** Current wind speed in m/s (hover to see current wind gust speed)